Location: Killarney Provincial Park Observatory
(46.0124°N, 81.4000°W)
Time: 18:57:14
(UTC-04:00)

Iridium 22 - Visible Passes

Search period start: 31 October 2014 00:00
Search period end: 09 November 2014 23:00
Orbit: 776 x 779 km, 86.4° (Epoch: 31 October)

Date Brightness Start Highest point End Pass type
(mag) Time Alt. Az. Time Alt. Az. Time Alt. Az.
31 Oct 6.3 05:48:17 10° N 05:53:24 52° E 05:58:27 10° SSE visible
31 Oct 6.7 07:29:53 10° NNW 07:33:42 21° W 07:37:31 10° SW visible
31 Oct 5.7 18:47:31 10° S 18:52:43 82° W 18:57:58 10° N visible
31 Oct 8.7 20:32:46 10° W 20:34:20 11° WNW 20:35:54 10° NW visible
01 Nov 7.3 05:15:06 10° NNE 05:19:40 30° ENE 05:24:13 10° SE visible
01 Nov 6.0 06:55:42 10° NNW 07:00:26 36° W 07:05:08 10° SSW visible
01 Nov 8.2 19:56:37 10° WSW 20:00:21 20° WNW 20:04:07 10° NNW visible
02 Nov 8.1 03:42:20 10° NNE 03:45:49 18° ENE 03:49:17 10° ESE visible
02 Nov 5.4 05:21:52 10° N 05:27:02 64° W 05:32:10 10° S visible
02 Nov 7.4 18:21:51 10° SW 18:26:32 33° WNW 18:31:14 10° NNW visible
03 Nov 5.7 04:48:17 10° N 04:53:31 74° E 04:58:43 10° S visible
03 Nov 7.0 06:30:41 10° NW 06:33:34 15° WNW 06:36:27 10° WSW visible
03 Nov 6.3 17:47:43 10° SSW 17:52:50 58° W 17:58:00 10° N visible
04 Nov 6.7 04:14:56 10° N 04:19:53 42° E 04:24:47 10° SSE visible
04 Nov 6.4 05:56:06 10° NNW 06:00:22 26° W 06:04:36 10° SW visible
04 Nov 8.5 18:57:57 10° WSW 19:00:41 14° WNW 19:03:25 10° NW visible
05 Nov 7.6 03:41:53 10° NNE 03:46:06 24° ENE 03:50:18 10° SE visible
05 Nov 5.7 05:22:06 10° NNW 05:27:03 45° W 05:31:58 10° SSW visible
05 Nov 7.9 18:22:35 10° SW 18:26:46 24° WNW 18:30:59 10° NNW visible
06 Nov 8.3 03:09:25 10° NE 03:12:11 14° ENE 03:14:56 10° ESE visible
06 Nov 5.3 04:48:22 10° N 04:53:36 80° W 04:58:48 10° S visible
06 Nov 7.3 06:32:27 10° WNW 06:33:22 10° WNW 06:34:17 10° W visible
06 Nov 7.0 17:48:05 10° SSW 17:52:59 41° W 17:57:55 10° N visible
07 Nov 6.0 04:14:52 10° N 04:20:02 59° E 04:25:09 10° SSE visible
07 Nov 6.8 05:56:42 10° NW 06:00:22 19° W 06:03:48 10° WSW visible
08 Nov 8.0 03:41:37 10° NNE 03:50:34 12° SE 03:51:01 10° SE visible
08 Nov 7.6 05:22:24 10° NNW 05:31:13 12° SW 05:31:34 10° SW visible
08 Nov 8.3 18:23:36 10° WSW 18:27:03 18° WNW 18:30:31 10° NNW visible
09 Nov 7.6 17:48:39 10° SW 17:53:11 30° WNW 17:57:45 10° NNW visible
